Wind_Speed
25 20 17 14 10 11 15 11 13 11 12 17 20 27 33 33 38 31 5 13 17 19 15 8 7 6 3 5 2 6 8 16 30 32 36 41 42 38 35 32 29 24 16 17
29 24 21 17 14 11 9 10 13 14 2 8 20 19 32 30 39 40 14 11 20 19 19 10 6 7 7 5 3 2 5 10 18 35 30 34 40 41 36 27 26 26 18 16
31 30 27 24 19 18 13 12 14 11 5 10 14 19 26 25 34 40 23 3 14 19 18 14 14 6 5 6 8 6 5 8 8 26 36 35 34 38 36 32 23 19 21 20
32 33 31 28 27 22 16 12 15 8 10 8 12 17 25 26 31 38 30 15 9 19 18 22 16 18 6 6 5 6 7 12 5 23 33 36 37 32 30 35 28 23 25 25
38 34 32 31 28 25 23 18 17 11 8 11 8 12 22 23 33 38 29 19 7 6 17 18 16 14 6 9 8 1 5 8 5 24 30 37 37 32 31 28 26 23 23 25
41 39 38 31 33 30 26 18 16 16 13 14 13 9 16 23 27 31 32 22 14 2 10 13 11 8 5 10 8 5 5 5 2 22 28 36 35 29 25 26 26 22 20 22
49 47 40 39 36 32 28 20 15 17 21 18 10 11 15 18 21 33 31 24 15 9 4 5 4 10 8 9 10 4 7 7 18 17 24 25 34 25 28 29 24 23 24 24
50 48 42 41 37 33 30 27 22 15 16 12 12 11 12 15 24 30 37 29 20 12 6 10 15 15 10 12 12 7 6 18 24 21 28 20 25 22 24 26 24 23 23 23
55 53 45 45 41 36 34 31 25 16 16 14 11 11 10 17 20 28 34 29 20 12 7 6 12 14 12 15 16 9 9 20 30 30 28 25 26 27 26 26 24 24 20 23
57 54 50 50 42 40 38 33 26 21 20 17 12 17 12 12 17 24 34 31 17 13 9 6 10 10 14 17 18 13 11 23 26 32 28 25 24 25 23 23 27 23 16 15
60 58 52 50 44 39 40 36 30 25 25 27 17 13 12 13 19 19 30 33 19 14 7 10 14 7 12 15 20 16 13 22 27 15 22 22 22 24 22 21 21 22 24 16
60 62 56 54 49 43 40 39 36 31 25 28 21 16 13 11 13 18 29 35 20 14 7 9 12 8 14 20 24 21 15 14 20 18 20 17 13 20 26 24 20 18 21 28
61 60 59 53 50 44 44 37 38 37 30 22 21 19 18 13 8 15 24 28 23 14 7 7 10 6 13 21 24 23 21 18 19 19 21 19 16 20 18 16 15 17 16 21
64 62 61 57 56 55 46 40 41 40 36 29 27 24 16 16 5 11 18 26 24 13 8 7 8 7 10 20 23 24 23 21 18 18 19 16 16 17 17 20 21 23 25 27
63 67 67 64 58 56 50 45 43 39 36 33 26 31 28 17 10 6 12 21 20 13 10 8 5 11 12 16 20 23 23 21 19 16 14 13 14 14 13 13 15 14 13 11
59 63 66 68 59 57 51 49 46 40 35 32 30 31 24 15 12 9 12 15 13 10 9 8 11 21 22 18 18 17 17 16 14 14 14 12 10 9 8 10 11 10 7 9
55 61 63 67 66 65 57 51 49 49 40 34 29 24 22 19 14 12 9 9 7 3 6 5 12 16 18 14 11 12 15 16 16 16 16 14 11 10 10 11 10 9 8 7
56 58 60 66 68 63 58 61 58 55 46 42 33 32 29 22 15 15 13 9 3 4 6 4 7 12 12 13 7 8 11 13 14 14 15 14 13 12 11 9 9 7 8 8
54 62 61 66 68 65 64 64 59 51 52 49 47 33 31 25 19 14 7 9 2 9 9 7 7 6 8 13 8 6 6 9 12 14 15 16 14 10 7 5 7 8 7 10
58 58 64 66 73 69 66 68 68 62 54 49 53 43 35 30 27 25 17 11 3 11 10 9 10 10 9 8 11 10 11 12 15 17 19 17 14 11 8 10 10 8 8 12
66 60 58 65 74 73 73 72 75 63 57 60 54 50 37 34 40 32 21 19 10 10 12 9 12 14 11 9 9 11 16 16 17 16 16 14 13 11 9 10 9 9 10 12
72 65 60 63 70 75 76 78 73 69 70 65 62 53 47 40 38 33 30 20 15 14 12 14 11 11 10 9 10 13 16 16 17 16 14 13 13 10 7 4 7 7 10 10
77 71 65 63 65 76 82 78 79 76 73 70 64 57 57 47 46 44 35 23 21 15 12 14 15 11 10 8 13 16 16 17 16 14 12 9 8 8 7 7 10 11 13 15
78 77 70 66 66 72 81 81 82 79 76 70 64 63 58 50 47 41 40 25 21 17 15 13 16 17 14 12 12 17 17 16 14 12 11 11 12 12 10 13 16 17 18 20
83 80 77 71 71 73 79 84 86 85 80 76 73 67 59 51 52 48 39 38 30 23 16 15 14 13 12 10 12 16 16 16 14 15 15 15 14 14 15 18 19 19 20 23
90 83 84 78 75 73 77 85 89 85 81 77 75 70 61 47 46 42 38 35 33 29 23 20 14 11 9 8 9 13 14 17 15 18 17 18 18 17 18 20 24 23 25 30
Wind_Direction
245 245 241 246 265 269 280 293 284 280 353 307 355 2 16 15 17 1 286 212 211 209 206 196 159 216 212 113 121 170 177 190 198 202 203 200 202 208 217 212 218 219 217 229
245 245 246 245 243 237 237 275 268 276 303 326 333 354 13 16 15 4 10 200 199 204 208 191 247 231 216 176 243 221 218 206 206 204 210 205 207 212 216 211 210 212 218 230
241 239 238 242 235 237 240 255 257 263 235 313 308 347 6 8 354 356 16 222 203 200 203 197 204 207 211 190 234 269 271 274 232 212 209 208 203 211 217 204 207 220 229 233
234 234 230 234 230 232 244 264 271 260 266 289 321 338 9 0 355 360 16 33 224 201 202 208 220 221 225 215 223 288 324 316 258 201 203 210 213 209 206 210 217 224 224 230
233 233 224 228 225 233 248 255 258 263 225 285 301 329 352 358 353 345 16 25 44 186 212 229 233 206 206 201 186 131 4 318 204 187 191 192 204 210 212 214 220 219 219 230
235 230 222 223 224 229 237 250 266 250 244 271 296 337 1 351 348 349 18 18 33 166 219 230 238 210 244 180 182 83 77 71 57 174 182 187 186 190 193 199 201 205 217 227
227 223 218 219 223 229 234 242 242 243 252 270 270 331 349 350 344 354 13 17 16 20 230 207 219 205 173 176 170 158 105 107 93 142 164 156 173 177 185 196 202 207 216 228
224 224 214 217 219 227 230 237 228 229 265 242 287 303 322 333 329 349 6 10 13 40 350 209 178 147 158 176 172 141 102 135 127 117 128 161 154 167 183 187 199 209 223 235
219 219 208 212 212 224 226 228 231 236 238 244 274 292 300 323 331 356 7 7 5 14 56 208 183 179 161 182 169 146 146 146 137 140 150 161 166 175 185 197 207 216 226 246
219 216 206 207 212 221 224 225 226 236 229 228 256 269 302 328 346 6 11 5 12 355 24 85 105 136 157 167 158 152 157 162 152 157 171 171 173 177 188 202 213 231 238 259
219 216 207 205 213 217 226 221 221 234 240 248 242 266 292 325 345 7 10 7 10 351 11 50 71 76 156 161 166 163 163 163 166 148 159 169 170 183 184 192 213 220 223 220
225 220 211 207 213 216 225 221 219 227 235 248 240 257 272 321 359 10 7 360 3 352 15 47 70 69 163 168 173 167 159 150 167 144 142 135 167 185 194 200 214 223 236 248
219 221 218 212 216 219 222 217 219 223 226 222 230 240 265 291 331 357 355 356 359 3 37 62 87 87 140 163 169 170 162 154 164 173 164 170 170 181 188 200 212 222 247 258
220 218 215 214 222 220 221 216 216 220 225 222 231 240 248 274 318 343 358 351 352 17 43 78 94 102 122 152 163 173 176 169 164 176 187 184 192 201 221 224 234 245 257 267
222 220 213 212 218 221 216 215 211 217 221 220 223 236 248 276 301 335 8 347 350 11 49 99 120 120 124 141 154 173 178 176 180 180 185 196 205 219 229 245 250 255 255 260
221 220 219 214 210 215 215 213 208 215 213 216 224 240 243 255 271 307 342 339 356 2 39 87 139 112 109 124 141 153 148 152 163 185 198 196 200 205 212 223 220 215 210 229
223 218 219 220 209 207 203 206 206 211 207 212 217 224 234 244 261 284 314 315 345 355 57 89 159 140 127 119 111 124 138 155 162 168 169 161 169 178 186 191 197 195 212 253
220 218 215 216 214 206 197 201 203 211 212 207 211 221 231 239 257 276 276 280 311 201 132 130 157 179 155 130 126 140 158 171 170 161 147 150 158 167 183 200 214 210 222 233
221 219 213 213 209 203 202 200 198 208 211 210 210 224 226 236 235 231 237 246 322 220 163 168 192 186 164 135 160 177 191 190 160 151 155 163 173 176 182 176 174 195 228 273
222 222 220 210 207 201 200 201 199 200 206 209 212 212 215 221 227 225 232 232 194 222 169 183 204 209 196 169 192 211 209 196 174 173 179 188 192 200 213 189 202 254 299 313
222 222 221 215 207 202 201 200 203 195 198 206 207 205 212 217 228 222 236 227 226 221 179 168 195 204 188 192 207 214 204 200 196 200 204 201 218 226 233 217 235 268 280 311
224 217 216 217 212 204 204 202 198 192 200 202 206 205 210 213 226 220 231 227 214 214 198 189 186 182 182 190 208 216 213 215 211 215 216 213 227 239 232 244 263 278 313 314
221 219 213 214 208 210 206 200 198 201 201 203 202 203 208 198 203 219 226 223 212 220 222 201 190 180 175 165 216 221 225 219 221 227 228 222 199 212 238 251 267 284 302 309
220 218 212 211 207 210 211 203 201 200 202 204 202 200 203 205 207 214 234 209 210 227 232 221 204 190 197 198 220 228 231 231 231 223 231 225 225 247 263 268 276 284 300 307
218 217 211 208 210 206 208 206 202 201 200 203 204 200 204 201 212 220 220 215 227 236 247 223 207 198 201 203 230 236 239 235 242 240 235 231 241 261 265 276 285 280 286 299
217 214 211 207 209 208 205 207 206 200 199 202 201 201 199 203 210 209 212 210 222 228 253 230 226 205 207 204 219 238 253 254 265 251 245 249 239 253 266 274 277 288 293 298
Height
10969 10972 10974 10975 10975 10975 10975 10973 10973 10971 10969 10969 10967 10966 10960 10956 10950 10948 10941 10936 10938 10943 10945 10948 10948 10950 10951 10954 10957 10959 10961 10964 10968 10973 10979 10986 10993 11000 11005 11011 11015 11020 11024 11027
10964 10970 10970 10970 10972 10973 10974 10971 10970 10970 10968 10969 10966 10965 10961 10958 10951 10950 10941 10937 10936 10940 10943 10946 10948 10949 10949 10953 10956 10957 10960 10965 10967 10972 10978 10985 10992 10997 11002 11008 11012 11017 11021 11025
10961 10964 10966 10966 10968 10971 10970 10970 10969 10968 10967 10966 10965 10964 10963 10960 10954 10953 10941 10938 10937 10938 10941 10946 10949 10949 10950 10952 10956 10957 10959 10961 10963 10966 10972 10979 10986 10992 10999 11005 11010 11014 11018 11023
10956 10958 10961 10963 10965 10967 10967 10969 10967 10966 10965 10965 10966 10965 10962 10959 10958 10956 10944 10940 10940 10939 10941 10945 10949 10950 10951 10951 10954 10954 10955 10956 10957 10960 10967 10975 10981 10989 10996 11003 11009 11012 11016 11020
10946 10952 10956 10957 10962 10963 10962 10964 10965 10964 10965 10965 10966 10965 10960 10959 10957 10955 10945 10941 10939 10938 10941 10943 10945 10948 10950 10951 10953 10955 10954 10953 10953 10956 10961 10968 10976 10986 10994 11001 11006 11011 11014 11017
10942 10944 10948 10954 10955 10957 10958 10961 10963 10963 10963 10965 10966 10966 10963 10960 10960 10955 10946 10942 10938 10937 10939 10941 10942 10944 10947 10949 10952 10954 10954 10953 10950 10953 10958 10966 10975 10985 10993 11000 11006 11010 11013 11015
10927 10930 10942 10945 10950 10953 10956 10959 10961 10960 10961 10964 10965 10965 10962 10961 10960 10955 10947 10944 10940 10937 10937 10938 10940 10943 10945 10949 10952 10954 10954 10954 10954 10958 10962 10970 10977 10985 10996 11000 11005 11008 11009 11011
10919 10924 10935 10938 10944 10950 10953 10955 10958 10958 10960 10961 10962 10963 10961 10961 10959 10955 10948 10942 10940 10939 10935 10938 10940 10941 10944 10949 10952 10954 10955 10957 10958 10963 10968 10972 10979 10988 10995 10999 11003 11005 11008 11009
10904 10911 10927 10932 10937 10942 10947 10950 10955 10958 10958 10960 10960 10960 10961 10961 10958 10956 10949 10942 10939 10939 10939 10938 10938 10941 10944 10948 10952 10954 10957 10959 10962 10966 10970 10975 10981 10988 10993 10997 11000 11002 11005 11006
10894 10902 10916 10922 10932 10936 10939 10947 10951 10953 10956 10958 10957 10957 10960 10960 10959 10957 10949 10943 10941 10940 10940 10939 10937 10938 10942 10947 10950 10955 10958 10961 10965 10969 10971 10976 10982 10988 10992 10995 10998 11001 11002 11003
10885 10893 10907 10917 10925 10931 10935 10942 10947 10950 10952 10955 10955 10957 10960 10959 10959 10957 10951 10946 10943 10943 10941 10938 10936 10937 10939 10944 10949 10954 10958 10962 10965 10968 10972 10977 10982 10987 10992 10996 10997 11000 11002 11003
10878 10885 10899 10908 10916 10924 10931 10939 10944 10948 10950 10953 10953 10955 10957 10959 10960 10955 10952 10949 10947 10947 10942 10939 10938 10940 10940 10945 10950 10955 10958 10961 10964 10968 10973 10977 10980 10986 10990 10994 10996 10998 10999 11001
10863 10876 10890 10907 10913 10922 10927 10937 10940 10943 10948 10950 10950 10952 10955 10956 10958 10955 10954 10950 10950 10949 10945 10942 10942 10944 10944 10945 10949 10954 10958 10961 10964 10969 10973 10977 10981 10986 10990 10993 10994 10996 10997 10996
10852 10860 10876 10893 10901 10909 10922 10932 10935 10935 10942 10948 10949 10950 10952 10954 10955 10955 10953 10949 10951 10950 10947 10944 10943 10945 10945 10945 10948 10952 10958 10961 10965 10969 10973 10976 10979 10983 10986 10989 10991 10992 10992 10990
10841 10850 10858 10871 10886 10900 10915 10924 10929 10931 10936 10942 10946 10947 10949 10952 10955 10954 10953 10951 10952 10949 10949 10947 10946 10946 10945 10946 10949 10953 10957 10961 10965 10967 10971 10973 10976 10980 10982 10985 10986 10987 10986 10986
10826 10839 10851 10859 10872 10888 10905 10916 10924 10929 10933 10936 10941 10944 10946 10950 10953 10955 10954 10954 10952 10949 10949 10949 10950 10947 10947 10949 10953 10954 10955 10958 10963 10967 10969 10972 10975 10977 10979 10982 10983 10984 10984 10982
10815 10825 10836 10848 10861 10868 10888 10907 10918 10920 10929 10933 10937 10941 10944 10947 10950 10954 10955 10955 10952 10950 10950 10951 10953 10951 10950 10952 10954 10956 10958 10961 10964 10967 10969 10971 10974 10976 10978 10979 10980 10981 10981 10981
10802 10808 10820 10831 10847 10869 10883 10889 10902 10915 10922 10927 10936 10937 10939 10944 10948 10952 10954 10955 10952 10951 10951 10953 10954 10954 10952 10951 10955 10958 10961 10964 10964 10965 10967 10969 10972 10975 10977 10978 10978 10978 10979 10978
10793 10796 10804 10816 10837 10854 10870 10880 10895 10906 10910 10919 10927 10933 10936 10942 10945 10951 10954 10954 10951 10951 10950 10951 10953 10953 10954 10950 10955 10959 10962 10963 10963 10964 10967 10970 10973 10974 10976 10977 10977 10977 10976 10976
10783 10788 10795 10805 10822 10841 10856 10866 10873 10883 10899 10911 10919 10926 10933 10938 10941 10947 10952 10953 10950 10950 10947 10949 10950 10951 10953 10951 10955 10958 10961 10963 10964 10966 10969 10971 10972 10972 10973 10973 10974 10975 10974 10973
10765 10777 10789 10797 10811 10828 10837 10846 10854 10879 10889 10895 10907 10917 10925 10930 10930 10940 10946 10949 10948 10949 10946 10947 10948 10952 10950 10953 10955 10957 10960 10962 10964 10966 10968 10970 10971 10972 10972 10973 10973 10974 10974 10971
10749 10762 10776 10786 10804 10816 10824 10831 10860 10866 10865 10881 10896 10908 10914 10919 10927 10933 10939 10943 10944 10945 10945 10944 10946 10947 10949 10952 10955 10958 10960 10962 10964 10966 10968 10969 10970 10972 10972 10973 10973 10972 10971 10968
10729 10747 10760 10772 10792 10798 10805 10826 10840 10851 10856 10869 10883 10895 10902 10914 10918 10924 10932 10937 10939 10941 10943 10942 10943 10944 10947 10948 10952 10955 10958 10961 10963 10965 10968 10969 10969 10970 10972 10972 10970 10969 10967 10965
10712 10728 10746 10759 10771 10782 10799 10816 10826 10837 10850 10863 10875 10885 10893 10901 10909 10918 10925 10933 10935 10938 10941 10941 10941 10941 10943 10944 10948 10952 10955 10958 10960 10962 10963 10965 10966 10967 10968 10968 10966 10965 10963 10960
10691 10709 10728 10745 10750 10764 10778 10798 10810 10821 10835 10849 10860 10875 10883 10891 10901 10913 10919 10925 10931 10935 10937 10938 10938 10939 10939 10940 10944 10948 10951 10954 10956 10957 10959 10960 10962 10963 10963 10962 10961 10959 10957 10955
10669 10690 10705 10726 10739 10754 10767 10782 10798 10815 10831 10839 10854 10864 10874 10886 10895 10906 10912 10919 10926 10929 10933 10935 10936 10935 10935 10937 10940 10943 10946 10949 10951 10953 10954 10955 10957 10958 10957 10956 10954 10954 10952 10948